Total_Precipitation_Accumulation
1.70 1.53 1.31 1.21 1.12 0.99 0.96 0.97 0.93 0.89 0.83 0.79 0.75 0.65 0.61 0.56 0.53 0.47 0.42 0.43 0.56 0.84 1.10 1.29 1.35 1.30 1.30 1.27 1.09 1.01 0.94 0.93 0.91 0.87 0.84 0.81 0.79 0.79 0.82 0.82 0.81 0.82 0.83
1.90 1.80 1.63 1.47 1.34 1.21 1.09 1.03 0.94 0.93 0.91 0.85 0.79 0.71 0.69 0.63 0.60 0.56 0.44 0.38 0.44 0.59 0.93 1.28 1.56 1.66 1.67 1.66 1.47 1.35 1.24 1.12 1.07 0.99 0.94 0.91 0.86 0.85 0.87 0.89 0.89 0.92 0.94
2.06 2.03 1.87 1.71 1.49 1.44 1.40 1.31 1.17 1.06 1.00 0.94 0.87 0.81 0.78 0.71 0.66 0.65 0.59 0.49 0.44 0.45 0.66 1.01 1.38 1.60 1.72 1.86 1.78 1.63 1.48 1.32 1.20 1.12 1.06 1.02 0.98 0.92 0.92 0.96 1.00 1.02 1.03
2.16 2.21 2.05 1.91 1.80 1.64 1.56 1.49 1.38 1.26 1.16 1.09 1.02 0.96 0.93 0.86 0.73 0.66 0.63 0.60 0.58 0.51 0.53 0.76 1.02 1.25 1.44 1.65 1.84 1.87 1.74 1.52 1.32 1.20 1.14 1.11 1.09 1.08 1.07 1.08 1.10 1.12 1.11
2.46 2.34 2.17 2.02 2.05 1.96 1.72 1.61 1.52 1.35 1.25 1.16 1.10 1.07 1.03 0.97 0.89 0.81 0.72 0.63 0.58 0.57 0.58 0.67 0.80 0.91 1.08 1.26 1.56 1.83 1.86 1.75 1.54 1.36 1.25 1.19 1.17 1.20 1.25 1.28 1.26 1.22 1.24
2.70 2.68 2.45 2.35 2.30 2.25 2.03 1.79 1.61 1.47 1.31 1.30 1.26 1.18 1.14 1.13 1.03 0.94 0.88 0.80 0.70 0.61 0.59 0.62 0.72 0.74 0.83 0.97 1.19 1.47 1.66 1.74 1.69 1.61 1.49 1.44 1.40 1.39 1.45 1.48 1.46 1.44 1.46
2.74 2.81 2.69 2.61 2.53 2.34 2.20 2.04 1.85 1.66 1.49 1.47 1.49 1.33 1.21 1.18 1.16 1.05 0.98 0.91 0.84 0.79 0.73 0.70 0.73 0.74 0.74 0.84 0.93 1.12 1.28 1.41 1.56 1.65 1.62 1.57 1.59 1.60 1.61 1.65 1.64 1.63 1.69
2.92 2.89 2.77 2.74 2.74 2.56 2.40 2.25 2.12 1.90 1.68 1.63 1.65 1.63 1.45 1.32 1.18 1.05 1.01 0.94 0.88 0.87 0.88 0.86 0.84 0.85 0.81 0.80 0.80 0.89 1.01 1.20 1.47 1.76 1.85 1.79 1.83 1.85 1.88 1.93 1.98 2.00 2.03
3.06 2.92 2.86 2.85 2.87 2.81 2.68 2.57 2.50 2.30 2.05 1.89 1.76 1.86 1.69 1.36 1.13 1.06 1.02 0.95 0.91 0.90 0.91 0.94 0.95 0.97 0.92 0.86 0.82 0.85 0.94 1.10 1.42 1.81 2.04 2.11 2.12 2.14 2.26 2.35 2.42 2.47 2.42
3.13 3.03 2.96 2.94 2.94 2.91 2.83 2.78 2.74 2.64 2.47 2.28 2.07 1.83 1.64 1.40 1.26 1.13 1.02 0.98 0.98 0.96 0.98 1.01 1.02 1.08 1.06 0.96 0.95 0.97 1.03 1.14 1.38 1.78 2.18 2.43 2.58 2.70 2.79 2.89 2.94 2.95 2.85
3.14 3.01 2.90 2.87 2.87 2.93 2.94 2.88 2.80 2.79 2.64 2.40 2.20 2.02 1.84 1.55 1.32 1.24 1.08 0.96 0.95 0.91 0.92 0.95 0.98 1.00 1.07 1.02 1.04 1.15 1.25 1.29 1.47 1.80 2.29 2.73 2.99 3.26 3.46 3.54 3.53 3.46 3.35
3.03 2.94 2.85 2.73 2.67 2.75 2.88 3.00 2.92 2.85 2.78 2.56 2.32 2.08 1.95 1.78 1.53 1.41 1.29 1.10 1.06 0.96 0.90 0.90 0.97 1.04 1.15 1.12 1.15 1.34 1.38 1.43 1.60 1.90 2.34 2.75 3.03 3.29 3.50 3.75 3.84 3.75 3.65
2.84 2.63 2.64 2.64 2.55 2.50 2.65 2.86 2.94 2.85 2.79 2.68 2.52 2.29 2.09 1.83 1.65 1.64 1.64 1.50 1.33 1.14 1.07 1.03 1.00 1.07 1.22 1.31 1.30 1.44 1.39 1.46 1.56 1.74 2.10 2.47 2.63 2.78 2.97 3.35 3.69 3.78 3.69
2.83 2.62 2.52 2.57 2.63 2.56 2.54 2.66 2.70 2.66 2.66 2.63 2.55 2.44 2.31 2.07 1.88 1.81 1.83 1.94 1.91 1.62 1.42 1.27 1.21 1.26 1.33 1.43 1.49 1.56 1.39 1.54 1.57 1.62 1.79 2.02 2.10 2.13 2.22 2.42 2.78 3.07 3.26
2.67 2.61 2.54 2.49 2.50 2.57 2.59 2.63 2.60 2.47 2.42 2.43 2.38 2.36 2.30 2.12 2.02 1.95 1.96 2.10 2.34 2.21 1.80 1.45 1.40 1.42 1.44 1.50 1.57 1.38 1.21 1.42 1.47 1.46 1.52 1.61 1.65 1.62 1.64 1.79 1.95 2.11 2.30
2.29 2.39 2.43 2.36 2.34 2.33 2.37 2.48 2.50 2.40 2.31 2.25 2.20 2.20 2.17 2.06 2.01 2.00 1.99 2.01 2.14 2.29 2.07 1.53 1.30 1.28 1.35 1.39 1.51 1.26 1.11 1.32 1.26 1.25 1.31 1.38 1.42 1.40 1.40 1.49 1.58 1.63 1.67
2.04 2.09 2.15 2.15 2.15 2.15 2.13 2.19 2.21 2.21 2.18 2.07 2.03 2.04 2.00 1.92 1.91 1.89 1.90 1.93 1.93 1.97 1.96 1.51 1.20 1.13 1.21 1.24 1.28 1.17 1.02 1.00 0.97 1.11 1.12 1.17 1.22 1.24 1.28 1.33 1.40 1.46 1.49
1.77 1.86 1.90 1.92 1.92 1.93 1.91 1.91 1.90 1.88 1.92 1.89 1.82 1.83 1.82 1.80 1.78 1.74 1.77 1.77 1.73 1.68 1.67 1.51 1.22 1.09 1.04 1.01 1.01 1.01 0.92 0.86 0.81 0.95 0.97 0.99 1.05 1.10 1.14 1.16 1.24 1.30 1.34
1.54 1.62 1.71 1.73 1.74 1.74 1.69 1.65 1.63 1.60 1.55 1.57 1.58 1.61 1.59 1.67 1.74 1.71 1.67 1.60 1.52 1.49 1.50 1.46 1.23 1.04 0.97 0.94 0.97 0.96 0.87 0.81 0.76 0.81 0.86 0.86 0.90 0.98 1.06 1.10 1.11 1.14 1.15
1.48 1.48 1.53 1.58 1.61 1.63 1.64 1.58 1.54 1.56 1.52 1.45 1.45 1.53 1.56 1.58 1.60 1.58 1.57 1.51 1.48 1.51 1.49 1.51 1.40 1.21 1.11 1.04 1.07 1.06 1.00 0.88 0.81 0.77 0.86 0.89 0.93 0.97 0.98 0.99 0.95 0.91 0.93
1.55 1.48 1.50 1.53 1.56 1.62 1.66 1.69 1.69 1.71 1.74 1.73 1.65 1.59 1.59 1.64 1.64 1.63 1.59 1.52 1.50 1.58 1.61 1.62 1.53 1.34 1.18 1.14 1.15 1.07 1.08 1.06 0.98 0.89 0.92 0.87 0.85 0.84 0.85 0.89 0.94 0.94 0.92
1.68 1.59 1.59 1.60 1.62 1.67 1.93 1.94 1.84 1.80 1.83 1.79 1.71 1.58 1.50 1.55 1.52 1.58 1.61 1.58 1.61 1.70 1.78 1.76 1.57 1.32 1.04 0.97 1.04 1.16 1.26 1.41 1.35 0.98 0.93 0.91 0.84 0.87 0.81 0.80 0.92 0.96 1.00
1.77 1.75 1.74 1.79 1.81 1.84 1.96 1.86 1.86 1.74 1.70 1.62 1.54 1.49 1.41 1.37 1.42 1.33 1.45 1.59 1.65 1.72 1.69 1.58 1.44 1.15 0.97 0.90 1.11 1.40 1.43 1.41 1.21 0.94 1.03 1.08 0.93 0.90 0.79 0.83 0.99 0.96 0.98
1.93 1.92 1.91 1.92 1.90 1.88 1.88 1.74 1.71 1.56 1.51 1.46 1.37 1.33 1.31 1.27 1.27 1.30 1.38 1.49 1.39 1.32 1.29 1.19 1.14 1.06 1.00 1.02 1.22 1.49 1.58 1.56 1.32 1.14 1.18 1.31 1.07 0.97 0.82 0.80 0.94 0.95 0.97
2.05 2.01 1.92 1.81 1.72 1.66 1.66 1.56 1.54 1.41 1.38 1.33 1.24 1.20 1.23 1.18 1.32 1.53 1.53 1.48 1.30 1.18 1.23 1.27 1.27 1.25 1.31 1.35 1.38 1.61 1.82 1.99 1.77 1.36 1.20 1.28 1.11 1.05 1.01 0.90 0.89 0.96 0.95
1.87 1.82 1.75 1.64 1.50 1.38 1.43 1.43 1.44 1.31 1.30 1.21 1.16 1.12 1.23 1.21 1.40 1.58 1.46 1.40 1.31 1.16 1.14 1.16 1.16 1.16 1.12 1.17 1.37 1.46 1.80 2.25 2.05 1.64 1.17 1.29 1.25 1.32 1.55 1.11 0.89 0.92 0.97